Regional Weather Roundup
Issued by NWS Glasgow, MT

Home | Current Version | Previous Version | Text Only | Print | Product List | Glossary On
Versions: 1 2 3 4 5 6 7 8 9 10 11 12 13 14 15 16 17 18 19 20 21 22 23 24 25 26 27 28 29 30 31 32 33 34 35 36 37 38 39 40 41 42 43 44 45 46 47 48 49 50
000
ASUS45 KGGW 040815
RWRGGW
HOURLY REGIONAL WEATHER ROUNDUP FOR NORTHEAST MONTANA
NATIONAL WEATHER SERVICE GLASGOW MONTANA
200 AM MDT TUE AUG 04 2015

NOTE: "FAIR" INDICATES FEW OR NO CLOUDS BELOW 12,000 FEET WITH NO
SIGNIFICANT WEATHER AND/OR OBSTRUCTIONS TO VISISBILITY.

NORTHEAST MONTANA


CITY           SKY/WX    TMP DP  RH WIND       PRES   REMARKS
GLASGOW        PTCLDY    67  46  47 E17       29.88F
PLENTYWOOD       N/A     61  48  62 SE3         N/A
WOLF POINT     PTCLDY    62  47  57 NE9       29.92F
JORDAN           N/A     67  46  47 E7        29.87F
WINNETT          N/A     69  47  45 S7G17       N/A
SIDNEY         CLEAR    N/A N/A N/A N5        29.94F
GLENDIVE         N/A    N/A N/A N/A MISG        N/A
MALTA            N/A     69  48  47 E10G22      N/A
SCOBEY           N/A     61  46  57 E9        29.94F

FORT PECK REPORTS


CITY           SKY/WX    TMP DP  RH WIND       PRES   REMARKS
FORT PECK        N/A     68  50  52 E23         N/A
THE PINES        N/A     68  47  46 NE3         N/A

SOUTHEAST MONTANA


CITY           SKY/WX    TMP DP  RH WIND       PRES   REMARKS
BILLINGS       CLOUDY    77  46  33 SW9       29.88F
MILES CITY     MOCLDY    73  53  49 SE3       29.89R
BAKER          CLOUDY    65  51  60 E12       29.96F
LIVINGSTON     MOCLDY    74  46  36 SW21      29.96R

CENTRAL MONTANA


CITY           SKY/WX    TMP DP  RH WIND       PRES   REMARKS
HAVRE          PTCLDY    73  49  42 E14       29.77F
LEWISTOWN      CLEAR     69  46  43 E9        29.89S
GREAT FALLS    CLOUDY    71  44  37 SW13      29.82S
CUT BANK       CLOUDY    77  36  22 W18       29.81R
HELENA         MOCLDY    80  40  23 S8        29.92R
BUTTE          CLOUDY    68  47  46 W3        30.08R
BOZEMAN        CLOUDY    67  51  56 S7        30.00R

WESTERN MONTANA


CITY           SKY/WX    TMP DP  RH WIND       PRES   REMARKS
MISSOULA       CLOUDY    72  42  34 W3        29.91R
KALISPELL      NOT AVBL

NORTH DAKOTA


CITY           SKY/WX    TMP DP  RH WIND       PRES   REMARKS
WILLISTON      CLEAR     65  51  60 CALM      29.97S
DICKINSON      CLEAR     54  49  83 E8        29.97S
MINOT          CLEAR     57  50  77 W3        29.97S
BISMARCK       CLEAR     56  49  77 E3        29.98S

SOUTHERN SASKATCHEWAN


CITY           SKY/WX    TMP DP  RH WIND       PRES   REMARKS
REGINA         CLEAR     59  50  72 E9        29.99S
ESTEVAN        PTCLDY    52  48  87 E7        29.98F
SWIFT CURRENT  CLEAR     61  54  77 SE16      29.90F



USA.gov is the U.S. government's official web portal to all federal, state and local government web resources and services.